Terminal Aerodrome Forecast
Issued by NWS

Home | Current Version | Previous Version | Text Only | Print | Product List | Glossary On
Versions: 1 2 3 4 5 6 7 8 9 10 11 12 13 14 15 16 17 18 19 20 21 22 23 24 25 26 27 28 29 30 31 32 33 34 35 36 37 38 39 40 41 42 43 44 45 46 47 48 49 50
000
FTUS41 KCTP 261748
TAFJST
TAF
KJST 261748Z 2618/2718 VRB04KT 1/2SM SN SCT003 OVC009
      TEMPO 2618/2622 1/4SM +SN OVC003
     FM262300 32005KT 3SM -SHSN OVC004
     FM270600 30004KT P6SM VCSH BKN025 OVC050=

USA.gov is the U.S. government's official web portal to all federal, state and local government web resources and services.